Location: Adaghas
(31.2259°N, 9.0496°W)
Time: 03:13:44
(UTC+00:00)

USA 234 - Pass Details

Date: 18 September 2020
Orbit: 1102 x 1106 km, 123.0° (Epoch: 16 October)

Event Time Altitude Azimuth Distance (km) Brightness Sun altitude
Rises 20:22:48 0° 37° (NE) 3,922 6.0 -23.0°
Reaches altitude 10° 20:25:19 10° 34° (NE) 2,963 5.3 -23.5°
Maximum altitude 20:31:44 62° 316° (NW) 1,229 3.7 -24.8°
Drops below altitude 10° 20:38:09 10° 237° (WSW) 2,956 6.0 -26.1°
Sets 20:40:39 0° 234° (SW) 3,912 6.6 -26.6°
